sat.trackr.live / text

‹ back to catalog

STARLINK-6376

NORAD 57349 · 2023-099X

PAYLOAD ACTIVE UNKNOWN

§ Identity

Operator
Country
US
Launch date
2023-07-16
Launch site
AFETR
Launch vehicle
Mass (kg)
RCS (m²)

Purposes: comms

External: N2YO · Heavens-Above · Gunter

§ Orbital elements

Epoch: 2026-05-24T10:40:29.068032Z

Period
94.27 min
Inclination
43.0011°
Eccentricity
0.0001513
Mean motion
15.27576629 rev/d
Perigee alt
482.0 km
Apogee alt
484.1 km
Semi-major
6,861.2 km
B*
1.9060e-5
RAAN
181.0407°
Arg perigee
263.7120°
Mean anomaly
96.3559°
Rev number
15,842

§ Raw data

STARLINK-63761 57349U 23099X   26144.44478088  .00000262  00000+0  19060-4 0  99902 57349  43.0011 181.0407 0001513 263.7120  96.3559 15.27576629158428

JSON: /api/v1/satellites/57349 · /tle

For live sub-satellite position, see the globe view (requires WebGL).

§ Visibility from observer

Set your observer location to see the next 7 days of passes ≥ 10°. The values pass through the URL so the page stays shareable.

No JS? Fill the form by hand. The geolocation button needs JavaScript.